Stations météo

réclame
Mon MeteoGroup
La Rochelle/Ile de Re, France (7316): Température de l'air & dewpoint: 05.12.2017 01:00:00 - 11.12.2017 01:00:00 (CET)La Rochelle/Ile de Re, France (7316): Vitesse du vent & gusts: 05.12.2017 01:00:00 - 11.12.2017 01:00:00 (CET)La Rochelle/Ile de Re, France (7316): Direction du vent: 05.12.2017 01:00:00 - 11.12.2017 01:00:00 (CET)La Rochelle/Ile de Re, France (7316): reduced air pressure: 05.12.2017 01:00:00 - 11.12.2017 01:00:00 (CET)La Rochelle/Ile de Re, France (7316): visibility: 05.12.2017 01:00:00 - 11.12.2017 01:00:00 (CET)La Rochelle/Ile de Re, France (7316): Ensoleillement: 05.12.2017 01:00:00 - 11.12.2017 01:00:00 (CET)La Rochelle/Ile de Re, France (7316): Quantités de précipitations: 05.12.2017 01:00:00 - 11.12.2017 01:00:00 (CET)
Date & Time tt [°C] td [°C] ff [km/h] ff [knt] fx [km/h] fx [knt] dd ppp [hPa] vv [km] sd [min] rr [mm]
11.12.2017 01:00:00 10,6 9,8 42 23 69 37 SSE 975,9 10 0 1,0
11.12.2017 00:00:00 10,5 9,9 35 19 54 29 SSE 977,6 10 0 0,4
10.12.2017 23:00:00 10,3 9,5 29 16 40 22 SSE 980,2 14 0 0,8
10.12.2017 22:00:00 10,4 9,6 16 9 26 14 S 983,6 8 0 0,6
10.12.2017 21:00:00 10,2 9,4 14 8 27 15 S 985,1 12 0 0,4
10.12.2017 20:00:00 10,7 9,6 16 9 34 19 SW 987,4 10 0 4,9
10.12.2017 19:00:00 11,0 10,1 18 10 44 24 SW 989,0 9 0 0,6
10.12.2017 18:00:00 11,1 10,2 25 13 51 27 SW 990,2 4,4 0 2,6
10.12.2017 17:00:00 11,3 9,2 32 17 50 27 SW 991,4 6 0 0,8
10.12.2017 16:00:00 11,6 9,2 29 16 48 26 WSW 992,0 15 0 0,2
10.12.2017 15:00:00 11,6 8,6 29 16 49 27 WSW 993,3 15 0 0,0
10.12.2017 14:00:00 12,6 8,3 24 13 52 28 WSW 994,0 14 0 0,0
10.12.2017 13:00:00 12,8 9,4 26 14 53 29 W 995,4 10 0 0,0
10.12.2017 12:00:00 12,9 10,4 29 16 49 26 W 996,5 9 0 0,0
10.12.2017 11:00:00 12,8 10,2 32 18 53 29 W 996,1 11 0 0,0
10.12.2017 10:00:00 12,7 10,1 39 21 71 39 W 995,8 15 0 1,0
10.12.2017 09:00:00 13,5 12,9 39 21 70 38 WSW 995,5 3,2 0 1,4
10.12.2017 08:00:00 13,5 12,7 39 21 74 40 WSW 996,1 7 0 0,4
10.12.2017 07:00:00 13,5 12,7 40 22 61 33 WSW 997,5 3,9 0 0,6
10.12.2017 06:00:00 13,4 12,9 35 19 56 30 WSW 999,2 6 0 0,8
10.12.2017 05:00:00 13,2 12,9 34 18 54 29 WSW 1000,6 13 0 0,2
10.12.2017 04:00:00 12,9 12,6 28 15 42 23 WSW 1001,9 6 0 0,0
10.12.2017 03:00:00 8,1 7,7 20 11 38 20 SSE 1003,1 1,8 0 3,4
10.12.2017 02:00:00 6,5 5,9 31 17 49 27 SSE 1004,5 3,8 0 1,0
10.12.2017 01:00:00 6,1 5,2 34 18 60 32 SSE 1006,4 6 0 0,2
10.12.2017 00:00:00 6,0 5,0 41 22 61 33 SSE 1007,9 10 0 0,0
09.12.2017 23:00:00 5,9 4,7 37 20 56 31 SSE 1009,7 13 0 0,0
09.12.2017 22:00:00 6,1 4,6 32 17 50 27 SSE 1011,5 12 0 0,4
09.12.2017 21:00:00 6,1 4,6 28 15 48 26 SSE 1012,7 13 0 0,2
09.12.2017 20:00:00 6,4 4,9 28 15 40 22 SSE 1014,8 10 0 0,2
09.12.2017 19:00:00 6,5 4,8 26 14 39 21 SSE 1015,7 19 0 0,8
09.12.2017 18:00:00 6,4 4,7 21 11 28 15 SSE 1017,0 10 0 0,2
09.12.2017 17:00:00 6,7 4,7 19 10 31 17 SSE 1018,2 18 0 0,4
09.12.2017 16:00:00 7,3 3,7 20 11 31 17 SSE 1019,6 60 0 0,0
09.12.2017 15:00:00 7,9 4,8 16 8 29 16 S 1020,5 47 0 0,0
09.12.2017 14:00:00 7,4 3,8 17 9 26 14 S 1021,9 50 0 0,0
09.12.2017 13:00:00 7,0 3,8 15 8 24 13 SSE 1023,2 43 0 0,0
09.12.2017 12:00:00 7,2 3,8 10 6 16 9 SSE 1024,2 57 0 0,0
09.12.2017 11:00:00 6,0 1,9 8 4 14 8 S 1024,9 10 4 0,0
09.12.2017 10:00:00 4,9 2,1 7 4 8 4 E 1024,9 20 39 0,0
09.12.2017 09:00:00 4,5 0,8 4 2 10 5 E 1025,3 52 0 0,0
09.12.2017 08:00:00 5,0 0,9 5 3 16 9 N 1025,3 48 0 0,0
09.12.2017 07:00:00 5,8 0,9 15 8 21 11 NW 1025,0 10 0 0,0
09.12.2017 06:00:00 6,4 0,5 15 8 21 12 WNW 1025,2 10 0 0,0
09.12.2017 05:00:00 4,2 0,5 8 4 17 9 NW 1025,6 10 0 0,0
09.12.2017 04:00:00 3,6 0,1 11 6 22 12 NNW 1026,3 60 0 0,0
09.12.2017 03:00:00 4,3 0,4 13 7 25 14 NNW 1026,2 10 0 0,0
09.12.2017 02:00:00 5,3 0,1 22 12 31 17 NNW 1026,4 60 0 0,0
09.12.2017 01:00:00 5,4 0,0 21 11 32 18 NNW 1026,6 60 0 0,0
09.12.2017 00:00:00 6,3 0,4 24 13 36 19 NNW 1026,7 10 0 0,0
08.12.2017 23:00:00 5,8 0,5 18 10 28 15 NNW 1026,9 55 0 0,0
08.12.2017 22:00:00 5,8 0,3 21 11 38 20 NNW 1026,7 57 0 0,0
08.12.2017 21:00:00 6,8 0,7 22 12 35 19 NNW 1026,4 10 0 0,0
08.12.2017 20:00:00 6,3 0,2 18 10 33 18 NNW 1026,5 60 0 0,0
08.12.2017 19:00:00 6,9 0,8 24 13 39 21 NW 1025,9 10 0 0,0
08.12.2017 18:00:00 7,0 0,4 21 11 45 24 NW 1025,6 60 0 0,0
08.12.2017 17:00:00 7,7 -0,1 29 16 41 22 NW 1025,3 58 22 0,0
08.12.2017 16:00:00 8,6 1,3 26 14 38 21 NW 1025,3 45 56 0,0
08.12.2017 15:00:00 9,4 1,8 21 12 32 17 NW 1025,3 45 57 0,0
08.12.2017 14:00:00 9,8 1,9 21 12 39 21 NW 1025,4 29 60 0,0
08.12.2017 13:00:00 10,0 3,3 22 12 32 17 NW 1026,0 32 60 0,0
08.12.2017 12:00:00 9,2 4,4 22 12 38 21 NNW 1025,9 10 60 0,0
08.12.2017 11:00:00 8,9 4,3 18 10 29 16 NW 1025,7 33 43 0,0
08.12.2017 10:00:00 8,0 4,2 17 9 27 14 NNW 1025,0 43 12 0,0
08.12.2017 09:00:00 8,2 3,8 18 10 34 18 NW 1024,3 50 0 0,0
08.12.2017 08:00:00 8,2 4,0 18 10 32 18 NNW 1023,7 40 0 0,0
08.12.2017 07:00:00 8,2 4,0 17 9 27 15 NW 1023,3 43 0 0,0
08.12.2017 06:00:00 8,6 5,3 14 8 20 11 NNW 1023,1 19 0 0,0
08.12.2017 05:00:00 8,5 5,8 17 9 28 15 NNW 1022,8 17 0 0,0
08.12.2017 04:00:00 8,6 6,2 16 9 29 16 NW 1022,7 16 0 0,0
08.12.2017 03:00:00 8,0 5,6 21 11 28 15 NW 1022,0 10 0 0,0
08.12.2017 02:00:00 8,0 5,8 14 8 21 12 NW 1021,5 19 0 0,0
08.12.2017 01:00:00 8,3 6,4 13 7 26 14 NW 1021,2 18 0 0,0
08.12.2017 00:00:00 8,8 6,9 19 10 41 22 NW 1021,0 18 0 0,0
07.12.2017 23:00:00 9,9 9,1 28 15 41 22 NW 1020,4 10 0 0,0
07.12.2017 22:00:00 10,0 9,4 18 10 37 20 WNW 1019,5 10 0 0,0
07.12.2017 21:00:00 11,0 10,5 17 9 32 17 WNW 1019,4 8 0 2,9
07.12.2017 20:00:00 12,9 12,3 16 9 37 20 W 1018,8 2,2 0 1,8
07.12.2017 19:00:00 13,1 12,6 26 14 48 26 W 1019,1 9 0 1,6
07.12.2017 18:00:00 12,7 12,1 24 13 45 24 SW 1019,1 2,8 0 0,2
07.12.2017 17:00:00 12,4 11,5 28 15 53 28 SW 1019,6 13 0 0,0
07.12.2017 16:00:00 11,7 10,9 29 16 46 25 SW 1019,6 6 0 0,6
07.12.2017 15:00:00 10,9 10,6 19 10 41 22 S 1020,4 3,2 0 0,4
07.12.2017 14:00:00 9,0 8,5 22 12 39 21 S 1021,8 5 0 0,4
07.12.2017 13:00:00 7,6 6,8 21 12 40 22 S 1023,0 2,2 0 0,4
07.12.2017 12:00:00 6,9 5,8 26 14 43 23 SSE 1024,0 7 0 0,0
07.12.2017 11:00:00 6,4 5,3 29 16 47 25 S 1024,6 6 0 0,0
07.12.2017 10:00:00 6,1 5,1 28 15 45 24 S 1024,7 7 0 0,0
07.12.2017 09:00:00 5,6 4,6 29 16 46 25 SSE 1025,1 8 0 0,0
07.12.2017 08:00:00 5,0 4,3 28 15 43 23 SSE 1025,6 6 0 0,0
07.12.2017 07:00:00 4,2 3,6 28 15 42 23 SSE 1026,0 6 0 0,0
07.12.2017 06:00:00 3,5 3,1 27 15 36 20 SSE 1026,7 6 0 0,0
07.12.2017 05:00:00 3,4 3,1 23 12 36 19 SSE 1027,4 4,1 0 0,0
07.12.2017 04:00:00 3,3 3,0 24 13 36 19 SSE 1027,5 2,5 0 0,0
07.12.2017 03:00:00 2,9 2,6 25 13 36 20 SSE 1027,9 2,2 0 0,0
07.12.2017 02:00:00 2,3 2,0 20 11 31 17 SSE 1028,6 0,6 0 0,0
07.12.2017 01:00:00 2,0 1,7 16 9 23 13 SE 1029,2 1,4 0 0,0
07.12.2017 00:00:00 2,2 1,9 13 7 16 9 SE 1030,2 0,8 0 0,0
06.12.2017 23:00:00 1,7 1,4 8 4 12 6 ESE 1030,6 0,6 0 0,0
06.12.2017 22:00:00 1,6 1,3 8 5 11 6 ESE 1031,0 0,6 0 0,0
06.12.2017 21:00:00 0,4 0,1 5 3 12 6 E 1031,5 0,4 0 0,0
06.12.2017 20:00:00 0,0 -0,3 10 5 15 8 ESE 1031,6 0,4 0 0,0
06.12.2017 19:00:00 -0,2 -0,6 9 5 14 8 ESE 1031,9 0,3 0 0,0
06.12.2017 18:00:00 -0,1 -0,5 11 6 15 8 SE 1032,1 0,3 0 0,0
06.12.2017 17:00:00 0,2 -0,4 6 4 14 8 SE 1032,4 0,8 0 0,0
06.12.2017 16:00:00 0,8 0,1 9 5 16 9 ESE 1032,4 2,2 0 0,0
06.12.2017 15:00:00 2,3 1,1 11 6 20 11 SE 1032,5 4,9 3 0,2
06.12.2017 14:00:00 5,2 2,2 9 5 14 8 E 1032,7 12 56 0,0
06.12.2017 13:00:00 5,6 2,9 8 4 12 7 E 1033,4 10 60 0,0
06.12.2017 12:00:00 4,7 2,7 8 4 12 6 E 1034,2 10 60 0,0
06.12.2017 11:00:00 2,9 2,2 7 4 12 6 E 1034,6 9 60 0,2
06.12.2017 10:00:00 1,8 1,5 4 2 8 4 - 1034,7 3,9 60 0,0
06.12.2017 09:00:00 -0,8 -1,2 0 0 6 4 N 1034,7 1,4 1 0,0
06.12.2017 08:00:00 -1,5 -1,9 4 2 10 6 E 1034,8 3,2 0 0,0
06.12.2017 07:00:00 -1,2 -1,6 9 5 13 7 E 1034,9 5 0 0,0
06.12.2017 06:00:00 -0,6 -1,0 9 5 14 8 E 1035,2 4,6 0 0,0
06.12.2017 05:00:00 0,3 -0,1 12 7 14 8 E 1035,5 2,9 0 0,0
06.12.2017 04:00:00 0,9 0,5 12 7 16 9 E 1036,0 0,2 0 0,0
06.12.2017 03:00:00 1,3 0,9 11 6 15 8 E 1036,3 1,1 0 0,0
06.12.2017 02:00:00 1,7 1,3 13 7 15 8 E 1036,5 4,6 0 0,0
06.12.2017 01:00:00 2,3 1,9 10 5 13 7 E 1037,0 5 0 0,0
06.12.2017 00:00:00 3,1 2,7 9 5 11 6 NE 1037,3 1,9 0 0,0
05.12.2017 23:00:00 4,0 3,6 8 4 9 5 NNE 1037,5 0,7 0 0,0
05.12.2017 22:00:00 4,5 3,9 8 4 9 5 NNE 1037,6 1,9 0 0,0
05.12.2017 21:00:00 5,0 4,3 8 4 9 5 NE 1037,7 4,7 0 0,0
05.12.2017 20:00:00 5,6 4,6 5 3 8 5 N 1038,0 6 0 0,0
05.12.2017 19:00:00 5,9 4,9 4 2 5 3 NE 1037,9 7 0 0,0
05.12.2017 18:00:00 6,0 5,0 3 1 7 4 N 1038,2 7 0 0,0
05.12.2017 17:00:00 6,2 4,8 4 2 8 4 NNW 1038,1 8 0 0,0
05.12.2017 16:00:00 7,0 4,1 2 1 7 4 - 1038,2 10 47 0,0
05.12.2017 15:00:00 7,5 5,0 2 1 10 5 E 1038,3 18 57 0,0
05.12.2017 14:00:00 6,3 5,6 5 3 11 6 - 1038,8 10 48 0,0
05.12.2017 13:00:00 4,6 4,3 4 2 13 7 E 1039,3 1,7 1 0,0
05.12.2017 12:00:00 4,2 3,9 6 3 10 5 E 1039,8 0,5 0 0,0
05.12.2017 11:00:00 4,1 3,8 2 1 8 5 - 1039,8 0,3 5 0,0
05.12.2017 10:00:00 3,9 3,6 5 3 10 6 SE 1039,7 3,9 13 0,0
05.12.2017 09:00:00 3,5 3,2 9 5 15 8 ESE 1039,5 0,2 0 0,0
05.12.2017 08:00:00 4,2 3,9 8 4 11 6 ESE 1039,2 0,3 0 0,0
05.12.2017 07:00:00 4,3 4,0 5 3 10 5 E 1038,9 0,5 0 0,0
05.12.2017 06:00:00 4,4 4,1 6 3 9 5 E 1038,9 0,3 0 0,0
05.12.2017 05:00:00 4,6 4,3 4 2 11 6 SE 1038,8 0,1 0 0,0
05.12.2017 04:00:00 4,6 4,3 8 4 13 7 E 1038,8 0,1 0 0,0
05.12.2017 03:00:00 5,4 5,1 7 4 13 7 ESE 1038,7 0,1 0 0,2
05.12.2017 02:00:00 4,2 3,8 11 6 14 7 E 1038,6 0,4 0 0,0
05.12.2017 01:00:00 5,2 4,6 8 4 11 6 ESE 1038,8 1,2 0 0,0

tt = Température de l'air
td = dewpoint
ff = Vitesse du vent
fx = gusts
dd = Direction du vent
ppp = reduced air pressure
vv = visibility
sd = Ensoleillement
rr = Quantités de précipitations

stations d'obs. à proximité